Theta_e
337 338 340 340 340 339 340 341 341 341 341 340 340 338 339 340 340 342 343 342 342 341 341 340 339 339 339 339 338 339 340 341 342 341 340 340 340 340 340 338 336 336 337 336 336 335 335 334 334 335 337 337 336 337 337 336 336 337 337 335 334 335 331 326 324 325 329 335 336 335 332 335 336 339 338 340 337 336 336 342 336 334 334 333 330
336 336 339 340 339 339 340 341 341 341 341 340 338 339 339 338 339 339 340 341 342 340 338 340 341 339 337 337 337 337 338 337 340 339 339 338 338 339 339 337 336 336 336 334 336 337 336 335 333 334 336 335 335 334 334 333 333 333 334 333 332 332 330 328 328 326 325 329 333 339 336 334 333 337 336 336 337 340 340 341 338 337 336 335 333
337 337 338 339 339 339 339 339 338 338 338 338 337 337 339 338 337 337 339 341 341 341 341 341 338 337 336 338 336 335 335 336 338 338 337 336 334 336 337 336 335 334 334 334 332 334 333 333 333 334 337 335 335 335 336 334 334 332 332 333 331 331 330 331 329 327 326 327 331 331 333 332 330 332 334 337 337 341 339 338 338 338 338 337 335
337 337 338 339 340 340 339 339 339 338 338 338 337 337 338 338 339 336 336 340 339 339 338 336 336 337 336 335 334 334 334 336 337 336 335 334 333 333 334 334 334 335 333 330 328 330 327 326 328 332 333 332 332 333 333 334 334 332 332 332 332 332 333 333 333 328 328 327 329 329 332 330 331 334 335 335 334 334 336 336 338 338 337 338 336
337 338 338 338 339 339 338 338 338 338 337 337 337 338 338 339 337 336 337 337 337 339 340 337 337 335 335 333 333 333 334 334 334 335 336 337 335 334 334 333 333 333 330 328 329 325 327 326 327 328 328 326 328 330 330 332 332 331 331 331 331 331 332 331 330 330 328 326 328 330 332 331 331 331 332 329 333 334 337 333 336 337 336 338 336
337 336 338 338 338 338 338 337 338 338 337 337 337 337 337 338 339 338 338 334 334 335 336 335 335 332 333 333 332 333 333 333 332 332 332 334 335 335 334 333 333 330 329 330 329 327 326 326 326 326 324 323 324 325 325 326 327 329 330 330 331 330 330 330 330 330 329 327 326 327 329 330 327 329 332 331 329 330 331 328 333 332 334 332 323
332 333 335 336 337 337 338 337 337 336 336 337 337 337 336 337 336 330 328 327 325 328 335 333 333 333 332 332 332 332 332 332 332 333 332 332 331 330 332 329 328 328 326 325 324 324 324 324 324 323 322 323 323 324 326 326 326 325 327 329 330 329 328 329 329 328 327 326 326 327 327 329 329 327 331 333 330 331 327 324 325 330 333 329 321
330 330 332 334 334 335 338 338 337 336 336 336 336 337 337 335 330 329 329 327 326 327 327 328 330 332 332 331 332 332 332 333 332 332 332 332 330 330 330 330 327 327 328 327 327 327 326 326 325 325 325 324 326 323 323 323 321 319 321 322 323 324 325 327 327 326 326 326 325 325 326 327 327 328 330 330 327 327 327 324 322 325 328 327 323
329 327 326 325 329 335 336 337 338 337 337 336 337 338 333 330 328 328 328 327 327 327 327 328 329 328 330 331 331 332 332 332 335 333 330 329 331 327 326 327 327 324 324 325 326 325 324 325 325 324 326 324 327 324 323 324 319 316 316 317 318 318 320 321 323 324 325 324 323 325 325 325 326 324 322 323 321 321 326 327 325 327 328 325 323
327 325 325 325 325 330 336 336 335 334 334 335 336 334 330 328 328 327 326 327 329 330 329 330 330 329 328 328 329 333 334 333 325 314 317 327 330 329 327 326 326 325 323 322 323 324 324 323 325 322 327 328 325 318 313 313 317 318 317 317 317 316 316 316 318 319 321 321 321 322 322 322 323 324 324 324 325 325 325 326 324 324 324 323 324
326 325 325 327 327 327 330 334 334 332 333 335 334 332 330 329 329 327 326 327 327 329 330 330 328 328 328 327 328 331 331 325 305 301 303 309 328 327 326 327 325 324 324 323 322 322 323 321 323 322 323 325 322 314 309 307 307 307 309 313 318 317 315 315 315 316 316 316 318 319 319 320 323 325 324 323 324 322 324 324 323 322 320 317 316
325 324 325 325 327 326 329 333 333 332 334 333 333 333 332 329 327 326 326 326 329 331 330 329 328 328 328 327 331 330 324 312 304 305 304 304 312 325 328 326 326 325 323 323 322 321 320 322 322 324 322 321 320 318 316 311 305 305 303 304 304 305 308 314 316 315 315 315 315 316 318 319 320 321 322 325 324 324 324 325 322 321 319 318 318
327 325 322 321 321 323 324 327 331 332 333 333 333 333 330 329 327 326 326 328 330 329 330 329 328 328 330 326 323 324 324 303 302 302 301 300 300 316 323 324 325 323 323 323 322 321 320 320 320 322 321 321 321 318 318 318 312 306 306 306 306 303 297 296 300 313 317 316 315 315 315 316 317 319 323 325 325 322 323 321 322 319 320 320 321
328 325 325 324 322 321 324 328 329 331 332 333 332 331 330 329 328 328 327 328 329 329 330 329 329 330 328 326 325 324 325 307 299 300 300 300 298 308 318 319 318 318 319 322 322 321 320 319 318 319 320 319 318 318 318 319 318 319 319 317 316 317 309 302 300 299 305 312 315 315 318 320 318 320 322 322 323 321 322 322 323 321 321 321 323
325 326 324 324 325 325 325 324 327 331 332 332 332 330 329 329 328 329 329 329 329 328 329 328 329 328 328 326 325 323 325 302 299 299 300 300 298 305 316 317 316 317 321 321 320 320 320 320 319 318 318 318 320 320 319 318 318 318 316 317 318 322 322 322 318 314 312 311 313 316 318 320 321 322 323 324 322 321 320 320 323 324 324 324 321
323 323 323 324 324 323 324 324 325 326 329 330 330 330 330 329 328 329 329 330 330 330 331 329 327 326 327 327 324 322 323 298 299 300 300 299 298 312 315 316 316 318 318 320 319 319 319 320 319 318 318 317 313 302 311 319 317 315 314 315 315 316 316 320 310 311 321 319 317 318 320 322 316 323 323 321 319 318 319 319 322 324 322 321 319
321 321 324 325 324 324 325 325 324 325 325 327 328 328 329 329 330 330 329 329 329 328 327 325 324 326 327 326 323 322 321 302 300 301 301 299 301 313 315 316 317 317 317 318 319 318 318 318 317 317 317 316 304 294 296 315 316 314 313 313 314 314 314 317 311 306 303 302 307 308 307 306 304 302 300 299 305 312 315 314 314 319 320 318 318
321 321 322 323 324 324 325 323 323 325 325 324 325 327 330 331 330 330 329 328 328 327 326 325 326 326 326 325 324 323 322 312 300 301 300 298 306 314 315 316 316 316 317 318 318 317 318 323 323 317 316 317 296 296 297 311 314 313 313 312 311 311 312 315 318 319 309 308 303 298 297 298 298 298 299 299 299 304 312 311 314 317 316 316 315
323 322 322 323 324 324 325 326 323 323 324 325 327 328 330 331 330 330 329 328 328 327 326 325 325 326 327 326 325 324 323 318 302 301 300 297 304 315 317 316 315 316 316 315 317 317 316 320 323 319 318 314 295 295 295 311 315 314 313 311 310 309 311 314 315 314 314 314 314 316 315 314 317 318 318 308 303 308 311 314 316 316 315 315 315
324 324 323 323 325 325 326 327 326 324 324 327 330 331 332 332 329 329 329 329 328 327 327 326 324 325 326 326 325 324 323 323 308 299 299 298 300 316 318 316 315 315 316 315 314 315 315 314 314 304 302 301 294 294 297 304 314 313 312 310 309 309 312 313 313 312 311 311 312 313 314 315 316 317 317 317 319 319 314 315 316 317 316 316 316
327 327 329 327 327 327 327 326 324 326 328 331 332 331 332 331 331 330 329 328 328 327 326 325 324 325 325 325 325 324 323 325 312 298 299 298 298 307 318 317 316 315 315 314 313 312 313 314 314 302 297 295 293 294 294 294 303 313 312 311 311 311 305 309 311 313 310 311 311 312 313 314 314 315 315 316 317 319 320 316 318 319 318 317 316
326 326 324 329 326 326 325 325 325 326 327 331 332 331 331 332 332 330 328 326 326 326 325 324 324 324 324 325 325 324 324 322 318 299 298 298 297 300 316 318 317 316 315 314 312 313 314 313 311 298 293 293 293 293 293 292 293 309 311 304 302 299 307 310 310 309 310 310 310 310 311 312 312 313 314 315 316 317 319 320 319 321 321 321 319
324 325 325 324 329 325 324 323 323 326 328 331 332 331 332 329 325 323 323 324 321 321 324 324 323 323 323 323 323 323 324 321 309 306 297 296 296 297 303 312 306 317 316 315 316 315 315 312 306 297 292 292 292 292 292 292 295 303 299 298 298 296 299 306 306 307 308 309 309 309 310 311 311 310 312 313 314 312 313 314 316 318 319 321 321
324 325 326 326 329 325 324 324 327 328 328 330 329 329 330 330 324 324 323 323 322 321 323 323 322 321 322 322 323 323 324 322 309 304 301 295 296 296 297 300 304 315 318 316 316 316 315 311 303 291 292 292 291 292 292 294 301 297 296 296 296 296 303 305 305 307 307 307 308 309 310 310 310 310 312 313 312 311 311 312 312 314 316 317 319
325 325 325 325 323 322 324 324 326 327 328 329 327 326 329 329 324 323 320 318 318 319 318 318 319 320 321 321 321 322 323 322 318 305 299 296 295 295 295 296 297 296 306 312 315 314 305 295 292 291 291 292 291 291 292 293 293 294 295 295 301 302 302 304 306 308 308 307 308 310 310 310 311 312 313 310 310 310 309 310 311 312 314 314 315
324 323 322 321 321 321 319 320 320 323 327 326 327 326 326 328 326 324 320 319 319 319 318 317 318 318 317 319 320 321 321 322 319 313 305 302 298 295 295 295 298 297 301 306 302 300 294 292 291 291 292 292 295 297 299 300 295 293 292 294 299 303 306 307 308 308 308 309 309 309 309 310 309 309 309 309 308 306 307 308 308 308 309 309 309
322 326 327 324 326 325 322 320 321 327 329 327 325 325 324 328 326 322 320 319 318 318 318 317 317 317 317 318 319 320 321 321 320 317 311 308 305 303 298 298 297 295 298 301 302 304 304 304 304 300 300 299 298 300 301 303 303 301 298 299 302 307 308 309 309 309 309 310 310 310 311 311 310 308 307 307 306 307 309 308 307 307 308 307 307
320 320 322 325 324 322 321 313 316 319 322 325 326 324 326 327 324 322 320 320 317 316 317 317 317 317 317 319 320 320 319 320 319 319 314 313 312 311 306 306 305 303 304 306 308 309 309 305 303 305 306 306 306 306 306 307 306 305 307 308 309 309 311 313 313 311 311 312 311 310 309 309 307 307 307 307 306 307 308 307 306 305 306 306 304
321 321 321 320 320 319 319 319 319 321 321 322 323 326 325 325 324 323 325 324 320 318 319 318 318 320 320 319 319 318 318 317 319 309 316 306 312 314 312 310 310 309 309 302 309 311 310 310 309 309 307 306 306 308 308 308 308 308 309 309 309 310 311 311 310 310 311 310 310 309 308 308 308 306 305 304 305 306 306 305 305 305 306 305 303
320 319 318 318 319 318 317 317 318 318 319 320 322 327 313 313 319 324 323 312 306 306 308 318 321 321 321 321 321 319 317 318 307 305 303 303 303 304 304 304 302 307 304 298 304 309 310 309 309 307 306 306 306 306 307 307 308 308 309 304 308 310 309 309 310 311 312 310 310 308 307 307 305 304 304 303 304 305 305 301 303 304 303 302 301
316 318 318 318 316 318 317 316 317 317 319 322 321 323 324 320 307 307 311 309 304 302 301 302 305 307 318 321 316 307 307 305 302 303 301 301 301 300 300 300 300 301 300 301 305 307 308 307 306 306 305 306 305 305 305 306 306 307 308 309 310 309 306 308 309 307 307 308 308 308 306 305 305 303 303 302 302 303 303 303 303 303 302 302 301
318 318 318 318 317 317 317 317 316 316 316 317 317 319 321 321 320 305 301 303 302 301 301 299 301 302 303 310 316 308 299 297 301 301 300 301 300 299 297 299 299 298 297 300 302 305 308 306 306 305 306 305 304 305 306 307 308 309 308 307 308 308 309 308 308 309 308 308 307 306 306 306 305 304 302 301 300 301 302 302 301 301 300 300 299
320 319 318 317 315 314 315 318 317 316 315 315 316 316 316 317 319 316 313 298 296 296 297 298 298 300 300 301 303 304 301 298 299 301 301 300 300 297 294 295 296 295 297 304 305 304 305 305 305 305 305 305 305 306 307 308 309 308 309 309 308 309 310 310 309 310 307 307 306 304 308 306 304 302 297 299 300 300 301 301 301 301 300 298 297
318 317 316 315 313 314 315 317 318 317 318 316 315 314 314 316 315 317 313 311 311 306 298 296 297 297 296 298 300 300 299 297 296 298 299 299 298 295 295 294 292 294 300 306 306 305 306 306 305 306 306 306 306 306 307 308 309 309 309 309 309 311 311 311 309 307 306 305 305 304 304 306 303 303 302 302 301 302 302 300 300 299 298 297 297
315 307 301 304 315 315 316 317 320 319 316 314 314 313 314 313 314 314 316 313 312 312 313 312 300 296 304 298 296 297 297 295 295 296 295 295 295 294 295 300 301 302 302 306 307 307 306 306 306 306 306 306 306 307 308 309 309 308 308 308 310 310 310 308 307 308 306 306 305 305 303 304 305 303 303 301 301 299 300 300 299 298 298 297 296
316 316 316 315 315 315 316 316 317 318 317 316 316 314 314 311 312 313 311 314 314 314 315 316 314 300 298 300 296 295 295 295 294 294 295 294 294 297 304 305 304 304 303 304 305 306 306 306 306 307 307 307 307 307 308 309 309 309 310 309 310 310 310 309 308 307 307 306 304 304 304 305 303 302 304 303 302 301 301 300 299 298 297 296 296
316 316 316 316 317 316 316 317 318 318 310 315 315 316 311 314 313 313 308 313 309 316 316 316 317 314 301 307 299 294 294 294 293 293 294 294 295 301 307 306 306 306 302 306 306 305 306 306 307 307 307 307 307 308 309 310 310 310 308 309 310 310 310 309 309 303 306 304 305 305 304 303 304 304 304 300 298 301 301 301 298 293 294 294 291
318 317 317 317 316 315 315 315 314 307 314 315 317 316 315 316 314 311 311 312 311 312 313 313 309 311 308 307 306 301 295 292 293 293 293 294 294 304 307 306 306 306 306 307 307 307 307 308 309 308 308 309 308 308 309 309 310 310 310 309 309 309 303 307 306 308 308 307 306 305 300 302 302 302 296 298 297 297 298 296 297 295 292 291 295
318 306 300 299 303 315 315 313 311 312 312 313 318 317 308 305 314 313 314 314 312 312 311 312 314 313 312 308 303 301 298 300 300 301 300 301 302 304 306 307 307 307 307 308 308 307 309 309 309 310 310 310 309 308 309 309 310 309 310 309 309 309 309 308 308 308 304 304 304 305 304 301 301 300 299 297 296 297 298 297 296 296 294 292 294
313 316 308 296 306 308 310 311 308 310 307 311 311 314 315 314 313 312 313 313 313 312 313 311 312 313 313 307 303 302 303 303 303 304 303 303 303 304 305 306 307 307 307 307 308 308 307 307 309 310 310 310 310 309 309 309 309 308 309 308 307 308 310 309 308 307 305 304 301 300 299 301 302 299 300 297 297 299 299 297 294 295 296 296 296
314 315 304 303 302 311 310 309 311 311 310 310 310 309 311 312 313 311 314 313 311 311 311 311 313 315 311 303 299 300 305 305 305 305 305 305 304 305 305 307 307 307 308 307 308 307 308 307 307 307 308 308 309 308 308 308 308 308 308 305 307 304 308 310 309 307 306 301 301 298 297 298 296 294 293 293 295 296 294 294 293 294 294 293 295
314 312 311 312 309 310 312 312 308 311 309 311 310 311 311 310 313 313 312 310 311 309 311 312 313 313 308 299 298 298 307 307 306 306 307 307 307 307 306 307 308 309 309 309 309 308 308 307 308 308 307 307 308 308 308 308 309 308 308 308 307 307 306 306 308 307 307 300 300 300 296 296 295 294 294 295 292 293 293 293 294 293 295 294 293
311 311 312 312 311 310 309 312 312 312 312 312 311 305 305 310 311 313 312 311 312 310 311 311 313 313 309 295 296 295 306 310 302 307 308 308 308 307 308 309 309 310 310 311 310 310 308 308 307 307 307 308 309 308 308 308 308 308 309 308 308 308 307 304 304 304 304 300 298 297 298 296 295 294 294 293 294 293 293 295 293 292 292 294 292
314 311 305 309 311 312 310 312 311 310 312 309 310 309 309 312 311 311 312 313 313 310 311 312 311 312 311 299 295 298 307 311 310 310 309 308 309 309 310 311 311 311 311 311 310 310 309 309 308 308 309 308 309 311 309 309 309 309 308 308 304 303 307 305 305 305 300 298 298 296 297 295 294 295 294 294 294 293 293 293 292 292 292 293 293
313 310 310 310 310 309 310 309 310 313 312 311 312 312 311 311 312 312 313 313 310 312 312 312 310 310 311 305 303 304 308 311 308 308 309 310 310 311 312 312 311 311 311 310 311 311 311 309 309 309 309 309 309 309 310 309 310 310 309 308 306 303 304 307 308 308 306 302 297 297 297 296 296 295 294 294 294 293 293 292 293 291 291 292 292
312 311 303 309 308 308 307 310 307 311 310 310 311 312 313 313 313 312 313 314 312 311 313 312 311 310 309 308 306 304 308 311 311 311 309 311 310 311 311 311 311 311 311 311 311 311 310 310 309 308 309 309 310 309 309 309 309 309 310 311 310 310 309 309 310 309 308 307 300 298 298 297 297 296 294 295 294 294 293 292 293 291 291 291 292
314 312 303 310 310 307 307 310 310 310 311 311 311 312 313 313 312 310 307 310 311 309 312 313 312 312 312 311 309 309 309 310 311 310 310 311 311 311 311 312 311 311 311 311 312 311 311 309 309 310 310 310 309 310 309 308 309 309 309 309 309 309 309 308 308 309 309 309 306 301 298 297 296 296 295 294 294 294 292 293 292 292 291 291 291
311 310 309 309 311 310 310 310 309 304 311 311 310 310 308 309 310 310 311 311 312 312 312 312 312 312 311 313 309 310 309 311 311 310 311 311 311 311 312 312 313 312 311 311 311 311 310 310 310 310 309 310 308 309 309 308 308 308 308 309 309 309 307 302 308 310 310 308 308 305 304 301 299 298 296 297 296 294 293 293 292 292 291 291 291
307 307 308 309 309 310 311 310 307 310 310 312 311 311 309 312 312 313 312 312 313 313 314 313 313 312 312 312 312 311 310 310 311 311 312 312 312 313 313 312 311 312 311 311 311 311 311 311 311 310 310 310 310 309 309 308 307 308 308 308 306 298 297 295 301 306 304 309 307 307 305 304 303 300 297 296 296 295 294 294 293 292 292 291 291
307 306 307 307 308 309 309 310 311 311 310 311 310 310 312 314 312 313 314 313 314 312 313 313 312 313 312 311 310 312 312 311 311 312 312 313 313 313 313 313 313 312 312 311 311 311 312 312 313 311 311 311 310 310 309 309 308 308 308 309 299 295 295 294 293 296 303 308 308 307 306 304 303 302 300 300 299 296 295 294 293 292 292 292 292
307 306 306 308 308 309 309 310 311 312 312 312 311 311 310 311 312 312 311 312 312 313 314 314 314 314 314 315 311 314 313 314 313 313 314 314 314 314 313 314 313 313 313 312 312 312 312 312 311 311 311 309 310 310 310 310 310 309 303 299 296 293 293 294 301 294 292 296 307 307 305 304 302 300 299 300 300 299 294 293 293 293 293 293 292
Wind_Speed
8 6 6 6 6 7 7 7 8 7 7 7 6 6 6 5 4 4 3 3 4 4 4 4 5 5 5 5 4 4 4 4 4 3 3 4 3 3 3 3 4 3 3 3 3 3 4 4 4 4 4 4 3 3 4 3 3 3 3 4 4 2 3 3 5 6 4 3 1 3 10 8 6 5 8 6 2 5 5 3 4 3 4 5 5
7 7 8 7 7 7 7 7 7 6 6 6 6 5 6 5 4 4 5 4 3 4 6 4 3 4 4 5 5 4 4 4 4 4 3 3 3 3 4 3 3 3 2 3 3 2 2 2 3 3 2 2 4 4 5 3 3 3 3 3 1 1 4 3 4 4 5 3 2 2 7 8 6 4 3 3 3 6 6 3 2 3 5 5 6
8 9 9 8 8 8 8 8 8 8 8 7 8 8 6 7 6 6 5 4 4 3 2 2 3 3 4 3 4 5 5 5 4 4 4 4 4 4 5 4 3 3 3 2 3 2 3 3 3 3 1 1 2 2 1 2 2 3 3 3 4 6 7 7 5 5 5 3 2 3 2 3 1 5 5 4 2 4 6 5 5 5 5 5 6
9 10 10 10 9 9 9 9 9 9 9 8 8 8 7 6 5 5 5 4 4 4 4 5 4 3 4 4 5 5 5 4 3 4 5 5 5 5 4 5 3 2 3 3 5 4 3 3 3 2 1 2 2 2 2 2 2 3 3 3 2 4 3 4 2 2 3 6 3 3 2 9 5 6 4 3 5 6 3 3 6 6 6 5 6
9 11 11 11 10 9 10 9 9 9 9 8 9 8 8 6 6 8 6 5 5 3 2 3 3 4 5 6 6 6 5 4 4 4 3 3 3 3 3 3 4 3 3 3 4 4 3 3 3 3 3 3 3 2 1 2 2 2 2 2 3 3 2 2 3 3 4 6 6 4 5 2 4 4 4 4 5 7 4 4 5 6 6 5 0
11 11 11 11 11 12 11 10 10 9 10 9 10 8 7 7 5 3 2 3 5 3 4 5 4 6 7 6 6 5 4 4 4 4 4 4 2 1 2 3 1 1 2 2 1 2 3 1 2 3 3 3 3 3 3 4 3 2 2 2 3 3 3 3 3 2 3 5 6 7 3 2 4 4 8 5 3 6 4 1 3 4 5 4 5
9 9 9 9 11 12 11 10 9 9 9 9 8 8 8 7 3 9 5 2 2 11 5 4 5 7 7 6 6 5 4 5 4 4 4 4 4 4 1 2 0 2 2 2 4 4 4 3 3 3 4 3 3 3 4 4 4 5 5 4 3 2 3 3 3 3 3 3 4 4 5 4 3 2 4 3 3 6 3 2 7 6 5 4 5
2 2 5 9 11 11 10 10 10 9 8 8 8 7 5 5 7 9 8 9 8 5 2 8 7 5 5 6 5 4 4 3 3 4 3 3 4 3 1 2 1 2 1 1 1 1 2 2 2 3 3 3 3 3 2 2 2 3 3 4 5 5 4 4 4 4 3 4 4 4 4 4 1 3 0 1 3 6 5 5 9 6 5 2 6
5 5 3 9 13 10 9 9 8 8 7 7 5 5 6 6 6 6 7 6 5 7 8 8 7 10 7 6 5 4 3 3 2 1 3 4 3 4 4 1 3 3 3 1 1 2 1 2 2 2 3 6 4 4 5 4 3 4 3 3 4 5 5 5 5 4 4 4 4 3 4 3 3 6 4 2 4 5 3 6 7 4 2 4 3
6 6 7 8 11 14 9 8 8 7 6 4 4 5 5 5 5 4 6 5 5 6 7 7 7 8 9 8 5 2 2 1 7 10 9 4 1 1 3 2 1 2 3 2 1 1 1 2 3 8 6 3 5 8 10 12 11 5 3 2 3 4 5 5 5 4 5 5 4 4 3 4 3 3 2 5 5 6 5 5 7 3 1 3 1
8 8 8 7 7 12 13 9 9 9 8 5 5 7 7 5 4 6 5 6 7 6 5 7 6 5 8 7 4 3 3 5 10 11 10 10 4 2 1 1 1 0 0 1 2 2 2 3 2 3 3 4 3 7 9 11 10 9 10 10 7 5 3 4 4 4 5 5 5 5 3 3 3 3 4 7 7 6 8 5 4 2 4 5 4
9 9 8 6 4 9 15 12 10 9 7 7 7 7 7 7 6 5 5 6 7 5 6 5 5 5 5 3 1 5 6 6 10 7 8 5 5 3 1 1 1 2 2 2 2 3 3 2 2 1 1 3 3 3 5 9 12 12 11 11 11 10 8 6 5 4 3 4 4 3 3 3 3 3 3 3 5 5 2 4 3 5 4 7 6
12 11 9 8 10 9 12 13 13 10 9 9 8 8 8 8 7 7 8 7 5 6 5 5 5 5 4 6 7 6 5 7 12 12 9 8 6 4 2 2 1 1 2 3 3 2 3 3 3 2 2 8 7 3 3 4 6 12 11 11 10 10 10 11 11 8 5 5 3 4 4 4 4 3 3 3 3 3 4 3 4 5 6 5 6
8 9 10 9 8 9 12 9 7 10 10 9 8 8 8 9 9 8 7 7 7 7 6 7 5 4 4 5 6 6 6 8 10 11 10 9 8 4 2 2 3 4 4 3 2 2 3 3 3 3 2 3 4 4 3 3 4 3 3 4 5 7 10 13 13 13 10 7 6 6 4 2 3 2 3 4 2 0 1 3 5 7 8 11 7
8 8 8 9 10 12 10 9 12 10 10 10 9 10 10 9 10 9 9 9 10 9 9 8 6 6 5 5 6 7 6 11 12 12 12 10 9 5 3 3 4 5 3 3 3 4 3 4 4 4 3 3 1 2 2 3 3 3 5 6 4 4 4 5 6 7 6 8 9 9 8 6 5 4 3 1 3 0 1 1 3 4 6 5 2
7 8 10 8 8 8 8 8 7 10 11 11 11 10 10 10 10 9 8 8 8 8 7 8 8 8 8 7 7 7 7 13 13 13 12 11 10 4 4 5 6 4 3 3 3 4 4 3 3 3 3 3 4 5 3 1 1 3 5 5 6 6 5 5 6 4 6 7 8 9 8 8 7 5 4 5 4 3 4 3 2 2 4 5 7
9 8 6 6 6 6 6 6 5 7 9 12 13 12 11 11 10 8 9 9 9 10 10 9 7 7 8 9 9 8 8 12 15 14 13 13 8 5 5 6 6 5 4 4 4 5 6 5 5 7 5 5 6 9 8 5 2 3 3 4 5 6 6 5 7 11 11 10 13 12 12 12 11 9 9 9 6 3 3 4 6 4 6 6 6
11 10 8 7 6 6 4 7 8 7 7 9 10 11 11 11 11 10 10 10 10 10 9 9 9 9 10 11 11 9 9 14 17 16 15 13 12 8 7 7 6 5 4 4 5 5 7 11 11 8 8 6 10 9 9 6 3 3 3 3 4 5 6 5 4 5 10 12 8 8 10 11 12 12 12 12 11 5 4 7 5 4 7 6 8
10 9 8 8 7 8 6 3 5 7 8 8 6 8 10 10 10 9 10 10 10 9 9 9 9 9 10 10 13 12 9 13 19 18 17 15 12 8 8 8 6 6 5 6 6 7 6 8 9 11 9 7 13 11 10 6 2 1 1 2 4 5 5 3 4 5 7 8 8 8 7 7 5 4 4 9 11 8 8 8 6 7 8 8 7
8 9 6 6 9 9 7 4 4 8 10 8 6 5 5 7 9 12 11 10 10 10 10 10 12 10 8 9 9 11 9 9 15 18 17 17 17 12 8 7 7 7 7 7 6 5 5 6 8 9 16 6 7 7 5 4 1 0 0 2 3 5 2 3 3 3 5 6 8 8 9 8 8 6 4 4 6 5 8 9 8 8 8 9 8
2 3 0 4 4 4 2 3 5 7 9 7 5 5 4 6 8 10 11 10 9 8 9 9 9 8 8 8 8 9 10 9 12 18 18 18 19 16 9 8 7 7 6 6 6 5 3 2 3 5 5 11 10 10 8 6 4 2 1 3 3 2 3 4 5 7 5 6 7 8 7 7 7 7 5 5 6 5 5 8 8 8 9 9 10
3 2 4 0 4 4 3 1 4 8 12 10 4 5 5 6 3 3 4 4 7 8 8 8 7 7 6 8 8 8 10 11 9 15 18 20 19 20 10 9 8 7 6 6 5 3 3 4 4 3 9 9 10 9 8 7 5 3 3 5 7 9 7 4 4 4 5 6 6 7 7 7 6 3 2 2 4 2 5 3 2 6 8 8 9
3 3 3 4 2 4 3 4 8 11 12 8 4 4 4 2 8 6 4 2 5 6 7 7 7 7 7 8 8 8 9 9 15 13 16 17 18 18 17 10 11 7 5 4 2 1 2 4 4 7 9 8 8 7 7 7 5 4 8 9 10 9 4 4 5 5 6 6 6 7 7 6 5 5 5 4 1 3 3 3 3 3 3 4 5
4 3 2 4 2 6 10 11 12 10 7 5 5 4 5 5 8 7 7 8 8 9 7 6 7 7 7 7 7 8 8 7 12 18 16 19 17 18 16 14 9 3 1 2 2 1 3 5 5 9 9 10 10 11 10 9 7 10 12 13 12 7 4 5 5 6 6 6 7 7 7 6 3 3 1 2 2 2 2 3 3 4 5 5 4
6 4 4 3 4 6 4 5 7 9 9 7 6 7 6 6 7 7 6 4 3 5 3 1 3 6 6 7 7 7 7 7 8 12 18 17 18 16 16 15 13 4 3 4 2 2 3 8 10 9 7 8 8 6 6 9 13 13 13 13 9 5 6 6 6 6 7 7 7 8 7 4 2 1 5 3 2 2 2 2 3 4 4 5 6
6 8 7 7 10 11 9 8 8 6 6 7 7 5 5 6 6 8 7 7 3 4 5 7 8 7 7 8 9 9 8 6 6 6 9 11 11 14 15 14 12 9 8 6 8 6 3 8 10 10 8 8 6 6 7 9 14 16 15 13 6 7 7 6 7 7 7 7 7 7 5 2 3 3 2 0 1 3 3 3 3 5 5 6 7
5 2 3 3 3 3 4 4 3 3 3 3 4 4 4 6 7 7 8 9 10 9 8 7 7 6 8 9 10 10 9 8 8 8 7 6 5 7 7 6 6 4 4 6 8 8 11 10 8 9 10 14 14 11 9 8 6 8 7 7 9 8 8 7 8 8 7 7 6 7 2 4 3 1 0 1 0 1 2 3 3 3 3 4 6
4 5 5 3 3 3 3 6 8 5 4 3 3 4 3 5 5 7 9 9 10 9 8 8 8 10 12 12 10 7 7 7 8 8 9 7 6 7 7 6 7 7 7 7 8 8 7 7 9 8 8 8 8 7 7 7 8 7 7 7 8 9 10 12 11 8 7 6 6 2 4 4 2 1 1 0 1 1 1 2 2 3 3 3 4
4 5 4 5 5 5 5 4 4 3 4 4 4 4 3 5 6 5 6 7 10 10 9 8 6 5 6 5 6 7 8 10 10 11 12 13 12 9 8 9 8 8 11 13 8 7 5 5 6 8 8 9 7 7 6 7 8 8 9 7 7 7 8 8 8 9 9 7 7 5 2 3 2 4 4 2 1 0 1 1 2 3 4 4 5
2 3 4 4 5 6 7 6 6 5 4 4 4 2 3 9 8 6 6 9 11 11 9 8 9 9 10 10 9 9 9 9 12 18 16 17 17 17 15 15 14 12 13 17 12 6 7 8 7 5 4 4 6 7 7 7 5 5 7 10 9 7 6 6 6 7 8 8 6 3 5 4 4 3 2 1 0 0 1 2 2 3 4 4 5
4 3 2 3 4 4 5 8 10 6 4 3 4 4 4 2 4 9 6 9 13 15 15 16 16 16 13 6 10 17 14 13 18 20 19 19 19 17 17 17 18 19 16 11 8 8 7 6 5 6 6 6 6 6 7 6 5 5 4 4 7 7 7 6 5 5 2 5 4 4 4 6 4 3 2 1 0 1 1 2 2 3 4 4 4
2 2 3 3 5 7 7 7 6 8 8 6 4 4 6 5 4 5 6 6 11 15 18 18 19 18 12 9 7 5 11 14 20 21 20 20 20 19 15 17 17 16 14 16 8 7 7 7 6 5 4 5 5 5 5 5 5 5 5 5 5 6 8 7 6 4 3 4 6 5 5 6 5 5 4 3 1 1 2 2 2 2 3 2 2
2 3 4 4 4 5 7 7 7 6 7 10 9 5 4 5 5 5 5 2 2 9 13 12 10 9 8 5 4 9 10 13 20 21 21 20 20 17 13 14 14 13 13 8 8 7 6 6 5 5 5 6 6 5 5 4 4 5 5 5 6 5 3 4 4 5 5 3 2 2 5 6 6 5 4 3 4 4 2 1 1 0 1 0 1
4 4 5 6 6 5 6 7 7 7 6 6 8 12 9 5 5 6 5 4 3 3 5 6 7 8 5 8 10 9 14 16 17 20 21 21 18 14 13 7 7 7 7 8 7 6 5 6 6 6 6 6 5 5 6 7 6 6 7 6 4 2 4 4 5 5 4 4 5 6 6 6 6 6 5 5 5 4 1 1 2 1 2 3 2
6 7 12 10 8 8 7 7 6 7 7 7 6 7 10 12 8 5 7 10 10 10 8 7 8 10 10 7 7 11 12 13 13 14 15 15 16 16 14 9 5 3 2 4 5 6 7 7 7 6 6 6 6 6 6 6 5 5 5 5 4 5 5 6 6 6 7 6 4 2 4 8 7 5 6 6 5 5 4 3 2 2 2 2 2
7 7 7 8 8 8 8 7 6 6 7 7 6 7 8 11 13 9 5 7 10 9 8 9 9 12 15 12 13 12 12 12 12 12 14 17 17 18 10 8 7 7 7 7 7 7 6 6 6 6 6 6 6 6 6 6 5 4 4 5 5 5 5 5 7 7 6 6 5 3 2 3 8 7 5 6 5 5 5 4 2 1 2 3 2
7 7 7 7 6 6 6 5 6 7 6 4 4 6 7 9 8 9 7 6 5 8 8 8 7 5 3 2 7 6 7 9 9 10 12 16 19 14 9 9 8 8 6 8 8 8 7 8 8 8 7 7 7 7 6 5 5 6 7 7 6 5 5 5 4 4 4 5 5 5 4 5 4 5 7 6 5 4 5 5 5 3 1 2 3
7 7 7 6 6 7 8 6 5 5 5 7 7 7 9 9 9 8 9 9 8 6 6 7 8 9 10 7 10 7 8 10 13 10 6 5 6 7 8 8 8 8 8 8 8 8 9 8 8 8 9 7 7 7 6 5 5 5 6 6 6 6 6 4 3 4 3 1 3 4 5 6 5 4 4 8 5 5 6 7 6 5 3 3 3
5 11 13 13 9 8 7 6 7 7 7 7 3 4 5 5 8 8 8 7 7 8 7 6 4 8 7 7 8 9 12 7 6 7 7 7 7 9 9 8 8 8 8 8 8 9 9 9 9 8 8 7 9 9 8 6 5 5 6 6 5 5 6 5 4 4 5 5 4 2 5 5 6 5 6 6 6 6 5 7 7 7 6 4 4
9 8 8 13 10 9 7 7 6 6 6 8 8 6 4 6 7 10 11 9 8 8 8 8 8 6 9 9 9 9 9 10 10 10 10 9 10 11 10 10 9 9 9 9 8 8 7 6 6 8 9 9 10 9 8 8 7 6 6 7 7 6 6 6 5 6 6 6 6 5 5 7 6 5 5 7 7 6 6 6 6 8 7 7 6
5 9 10 8 9 7 7 7 7 7 7 8 8 8 8 8 9 9 11 8 7 7 7 8 8 8 8 16 21 20 13 11 11 10 11 12 11 11 11 10 10 10 9 9 9 9 8 7 7 7 7 8 7 6 6 6 6 6 6 6 3 3 4 5 5 5 5 4 7 5 5 5 5 4 5 5 7 6 6 7 6 8 7 6 7
3 2 8 11 5 5 5 6 6 8 8 9 8 8 9 10 10 8 9 7 7 8 8 8 7 9 10 25 23 24 14 11 11 11 10 10 11 11 11 10 10 10 10 11 10 9 9 9 9 8 8 7 6 6 6 6 5 5 5 5 5 5 6 5 6 5 5 4 5 5 5 5 5 6 7 7 6 5 4 5 5 6 7 6 6
1 5 7 7 7 6 5 6 6 6 7 7 8 8 8 9 8 8 9 9 8 8 8 9 7 8 7 21 22 23 12 10 9 11 10 10 10 10 10 11 11 11 11 10 9 9 9 9 8 6 7 8 7 6 7 6 6 5 5 5 4 4 4 5 6 6 5 5 6 6 6 6 6 6 6 6 6 6 5 7 6 5 6 7 7
4 6 4 5 6 6 5 6 7 6 6 7 6 6 6 7 7 8 10 10 8 8 9 10 9 8 4 9 13 12 9 9 9 10 10 9 10 10 11 10 10 10 10 10 10 10 9 8 8 9 9 9 6 5 5 6 6 6 6 5 5 7 6 6 7 7 6 6 6 6 6 6 6 6 7 6 6 7 6 6 7 6 6 6 6
3 4 6 7 6 6 6 5 5 6 8 7 7 8 8 7 7 7 8 8 9 9 9 8 6 7 5 9 9 11 12 11 10 10 11 11 11 11 11 11 10 11 10 10 10 10 10 9 8 6 5 6 6 6 6 6 6 6 5 5 5 7 7 6 5 6 7 7 6 7 7 7 6 6 6 6 6 6 6 6 7 7 7 6 6
4 4 5 7 8 7 7 6 4 6 6 7 7 8 7 7 6 6 6 5 5 7 8 8 8 9 6 7 9 11 12 11 10 11 11 11 11 10 10 11 11 12 13 12 12 13 10 8 7 7 7 6 5 4 5 5 6 6 5 4 4 6 6 5 5 6 6 6 7 7 8 7 7 7 8 7 6 6 6 5 6 6 7 7 7
6 7 5 7 7 7 7 6 5 6 7 7 7 7 7 7 7 8 10 9 7 6 7 6 6 8 10 6 9 10 10 10 10 9 9 8 8 8 8 7 6 7 8 8 6 6 7 8 7 7 7 7 7 7 6 6 6 6 5 5 5 5 4 4 5 6 6 6 8 8 8 7 7 6 7 8 7 7 6 6 7 7 6 6 7
7 6 6 6 6 6 6 6 7 6 7 8 8 8 8 9 8 8 7 7 7 6 7 7 9 8 12 8 8 9 10 11 10 10 9 8 8 8 7 6 5 5 5 6 6 5 5 7 9 8 8 7 7 6 6 6 6 6 6 6 6 6 6 6 4 5 6 6 7 9 9 9 7 7 7 9 8 7 8 7 6 6 6 6 6
6 6 6 6 6 6 7 7 7 7 6 6 7 8 8 8 7 6 6 8 9 7 6 7 8 8 10 12 9 9 8 9 10 10 9 8 8 8 9 9 8 8 6 6 7 8 9 7 7 8 8 7 7 7 6 6 6 6 6 5 7 13 14 12 7 5 5 7 7 10 9 9 9 8 7 8 8 8 8 7 8 8 7 6 7
6 6 6 6 6 6 7 7 7 7 6 6 6 6 6 7 7 6 5 5 5 6 8 8 8 10 11 13 9 8 9 9 10 10 10 9 9 8 7 8 10 11 9 8 8 8 7 6 6 6 6 6 7 7 7 7 6 7 6 7 10 13 14 15 14 11 5 3 7 8 9 9 9 8 8 8 8 9 9 8 9 8 8 9 8
6 7 7 7 6 6 7 7 7 7 7 7 6 5 6 6 6 5 4 6 7 6 6 8 9 11 11 10 9 6 6 6 7 8 10 10 10 9 10 10 9 8 9 9 8 7 7 6 6 7 7 7 6 7 7 7 6 7 9 12 13 13 14 14 11 12 10 5 3 5 8 8 9 9 8 7 8 8 9 11 9 9 8 9 9
Wind_Direction
199 225 231 214 215 218 221 211 213 209 204 201 208 210 214 205 206 204 206 195 188 197 201 200 207 201 197 193 208 200 196 183 181 184 192 182 185 190 200 208 220 215 219 229 222 220 221 232 240 231 203 209 223 236 215 225 227 229 238 244 257 216 156 208 247 266 269 247 204 130 147 186 205 188 212 227 183 191 234 196 137 164 161 159 165
193 215 223 219 216 215 219 215 212 210 211 198 212 209 207 211 201 217 214 204 198 203 208 204 204 207 202 200 204 218 196 205 183 182 187 193 188 178 186 211 223 230 216 234 240 238 257 268 271 275 267 231 219 224 244 222 224 237 226 235 248 286 290 258 242 254 272 267 258 133 152 175 186 187 189 218 211 189 194 174 131 180 191 161 163
200 207 220 218 219 220 219 215 206 214 213 201 202 211 208 202 203 211 202 203 200 215 232 229 228 232 217 208 215 212 214 210 178 180 191 199 200 191 182 192 200 206 196 213 226 220 233 231 244 258 274 331 305 280 282 270 253 257 260 218 211 213 223 239 238 248 265 274 267 256 156 89 295 254 189 229 242 235 199 181 166 196 207 180 165
202 211 215 216 216 216 219 219 213 208 210 207 204 203 206 204 210 213 213 199 202 193 211 219 220 220 235 225 221 229 218 207 188 180 196 199 209 212 180 185 183 177 208 212 214 192 86 25 344 341 294 242 233 255 250 248 246 246 267 282 266 262 208 226 250 279 288 280 259 252 266 130 220 251 222 191 206 237 208 158 177 188 203 196 179
205 212 212 215 216 216 218 220 215 209 207 206 212 206 202 199 200 216 207 206 206 178 215 268 241 222 221 229 225 220 220 216 212 186 189 198 222 213 212 177 186 168 58 17 25 53 46 21 342 341 344 326 325 297 293 287 262 277 285 276 282 284 267 234 248 218 244 269 280 272 260 193 149 231 254 207 201 230 200 187 199 194 198 203 154
208 210 208 212 215 215 218 218 216 213 208 209 208 202 199 200 195 199 293 314 346 319 204 220 234 241 227 223 230 226 218 217 219 215 197 183 214 235 208 213 211 149 174 221 220 66 55 352 326 338 351 341 331 331 323 321 326 291 245 254 261 276 285 275 263 264 259 257 276 286 285 242 115 226 232 221 230 234 211 64 300 251 212 183 106
206 212 215 216 215 216 214 213 214 212 214 211 206 201 201 197 124 62 67 81 205 263 298 254 224 238 236 221 220 220 220 221 208 205 209 191 183 213 183 79 53 80 37 353 360 14 24 334 311 321 307 305 294 317 16 20 16 360 352 335 305 280 274 268 256 254 251 258 255 241 259 274 196 161 247 194 233 243 260 97 249 233 216 148 128
110 338 259 228 221 222 212 212 215 215 212 213 208 198 179 111 130 169 165 173 198 201 204 270 287 260 248 246 234 225 220 216 224 219 201 203 184 176 186 211 97 51 44 32 56 286 281 325 304 293 299 299 47 42 2 3 352 324 320 321 329 326 313 300 282 266 256 256 249 263 262 266 82 182 70 203 224 248 216 219 235 221 213 184 159
170 143 62 328 284 237 217 210 208 208 215 211 187 140 121 143 159 167 179 177 175 200 219 223 222 264 258 256 243 219 207 212 202 195 231 224 148 162 207 194 135 159 198 211 75 27 304 275 292 277 289 299 346 321 302 281 279 286 290 299 302 298 296 297 290 265 258 261 268 266 270 256 229 148 207 224 214 245 239 190 236 267 186 141 153
167 172 171 199 263 273 223 208 201 203 210 199 151 131 137 173 180 162 180 179 193 200 207 223 217 218 241 235 235 197 131 96 72 64 47 30 333 69 64 62 40 41 45 24 317 264 292 276 264 285 289 277 263 262 260 261 260 248 269 294 292 294 286 285 292 302 298 281 260 244 241 253 260 262 182 179 206 252 252 234 230 205 287 99 78
177 183 194 192 237 276 265 219 207 203 204 173 152 156 153 166 174 188 184 187 212 216 190 183 208 228 225 226 212 147 112 79 72 67 60 37 22 93 111 69 67 31 258 246 248 249 248 249 244 284 311 296 276 266 267 264 258 249 240 240 233 225 261 269 265 266 273 283 299 302 283 262 249 233 189 152 174 213 248 241 234 171 153 134 190
177 184 187 171 171 253 261 237 212 202 189 178 175 174 165 162 178 186 182 196 211 203 198 187 194 218 227 220 116 93 92 123 109 105 85 68 40 13 125 132 148 195 214 225 239 249 249 272 282 282 275 271 276 294 278 244 239 237 239 242 240 238 225 232 264 275 259 269 271 273 310 316 334 354 351 113 147 175 221 256 250 236 192 177 196
179 176 174 184 194 214 252 247 213 193 189 194 181 177 174 168 178 186 197 196 198 210 196 182 205 214 172 122 127 126 132 140 151 141 124 92 51 38 358 4 335 266 236 235 250 275 290 272 287 301 315 318 317 318 322 312 243 235 242 250 256 245 243 240 233 239 282 284 269 266 262 285 300 318 7 58 133 172 196 240 254 243 245 231 218
154 153 180 191 189 223 240 227 214 201 189 184 182 185 182 186 183 187 189 190 200 202 190 191 192 159 171 153 138 147 148 160 143 135 130 137 121 126 66 341 313 294 284 271 273 283 301 310 300 301 312 321 316 303 296 285 323 324 265 234 234 248 234 235 242 244 238 242 264 272 271 270 264 288 315 318 322 306 210 225 209 212 222 226 205
174 177 190 194 203 212 191 205 207 188 186 190 188 189 189 191 189 190 188 189 194 195 186 190 182 180 173 157 152 156 165 155 158 160 160 158 163 152 182 203 243 249 262 272 266 267 266 265 270 264 257 266 284 31 357 328 319 307 313 310 287 246 240 229 224 229 225 222 231 244 258 263 264 263 270 83 94 58 26 332 296 275 280 293 213
183 200 198 192 200 209 218 217 209 189 183 186 194 193 195 201 200 193 193 195 196 193 190 188 184 188 187 173 161 169 166 165 165 172 168 180 169 187 196 210 229 237 247 260 260 259 260 260 283 279 272 265 135 124 116 120 5 315 313 309 307 308 308 301 294 262 227 220 219 230 237 242 242 242 246 254 269 264 275 275 256 263 270 242 210
191 224 205 189 205 216 199 218 238 227 198 186 193 200 196 201 199 191 196 203 198 194 190 188 192 196 190 188 178 173 169 179 171 180 184 185 166 197 205 213 227 224 234 246 250 258 253 247 235 248 243 247 170 161 167 146 224 268 273 288 297 300 298 297 299 297 297 262 244 231 234 245 259 272 283 284 268 284 296 285 262 236 247 253 247
192 209 198 195 201 230 219 197 221 231 224 209 195 194 191 184 192 186 192 191 195 191 186 193 201 203 199 194 190 182 176 179 183 186 193 184 184 191 204 212 217 223 232 233 241 245 256 244 242 241 234 227 162 169 169 165 216 217 248 266 284 289 292 304 315 340 358 349 323 286 275 274 275 273 266 262 259 199 197 235 247 237 240 236 251
196 214 205 195 195 206 236 255 247 236 230 223 208 192 191 184 176 188 195 199 198 194 190 197 201 206 204 199 192 188 183 180 190 192 192 186 190 199 203 209 212 219 223 237 238 244 240 247 247 244 239 202 171 179 183 183 205 207 296 299 283 280 277 316 352 349 341 336 329 329 317 304 290 272 271 260 257 223 204 227 238 235 243 241 240
201 213 208 207 197 197 190 230 254 258 243 224 211 209 183 182 169 183 193 195 194 195 192 192 197 198 196 198 197 194 192 176 189 192 189 190 191 197 203 203 210 213 221 225 244 233 239 247 257 258 242 175 137 136 154 142 147 133 77 261 268 272 333 355 325 319 316 311 307 305 297 294 291 288 278 270 252 231 211 211 219 225 233 237 239
29 10 34 113 95 102 78 219 267 272 269 247 204 203 202 191 184 182 188 188 188 189 187 197 201 194 191 202 199 194 199 185 184 185 188 190 195 199 200 204 207 216 224 235 238 246 252 273 55 42 94 120 150 155 156 141 120 128 189 238 245 282 346 298 299 308 292 288 285 283 278 267 260 252 245 247 248 246 227 214 216 219 220 227 229
8 19 321 321 135 131 130 77 304 286 279 261 207 210 210 204 181 183 214 213 201 185 191 195 194 186 187 197 202 197 203 196 171 192 190 192 194 200 203 202 202 211 225 240 248 275 332 40 84 73 125 137 148 158 158 155 146 150 209 238 268 282 284 280 281 270 265 265 264 262 259 257 271 280 273 285 294 1 25 13 292 261 252 243 238
235 254 246 271 259 144 141 208 223 237 227 233 227 224 214 144 69 66 71 33 298 267 218 186 185 187 194 203 204 205 202 194 177 186 197 197 198 202 207 201 197 209 226 245 262 302 326 85 91 98 111 132 142 156 169 155 158 211 228 242 247 250 260 257 245 254 257 256 255 261 266 268 266 257 253 273 41 29 348 351 331 316 304 305 299
233 235 268 288 242 160 184 214 228 227 228 224 220 228 241 134 135 153 140 170 190 196 212 189 189 196 198 201 200 201 198 180 183 183 187 196 199 200 207 218 210 194 208 258 254 256 91 126 141 147 148 156 166 177 175 180 207 223 229 234 235 231 232 235 234 239 247 250 247 250 252 241 237 256 270 62 63 15 347 293 301 298 299 291 274
191 206 231 238 272 266 250 230 211 221 220 212 206 216 212 150 145 150 151 200 184 179 175 115 223 232 213 204 205 201 196 184 181 188 183 191 195 198 204 212 225 199 210 243 251 274 115 139 151 157 166 188 196 195 206 219 226 231 234 236 224 203 212 226 237 239 241 242 241 241 237 217 208 81 68 51 354 294 281 307 305 310 300 294 289
185 181 186 204 232 235 230 232 233 230 213 200 205 205 221 169 164 150 158 175 213 263 196 183 198 200 232 236 211 204 196 183 172 171 192 185 189 195 199 205 215 208 223 263 272 291 164 182 187 196 204 208 204 214 225 225 226 228 231 231 219 220 219 220 230 231 237 241 246 254 241 189 100 110 135 141 353 326 328 320 331 311 326 317 315
348 312 208 221 247 268 268 290 302 288 251 224 217 204 212 156 166 142 144 162 183 206 218 210 205 194 218 228 219 201 188 188 188 177 173 169 178 183 190 212 201 175 209 237 249 249 260 256 241 235 232 222 218 228 233 243 217 211 213 204 211 215 219 225 231 235 236 236 240 239 202 95 102 98 113 90 355 323 340 301 297 290 299 309 303
324 331 326 306 277 264 268 207 207 233 262 266 239 219 181 149 167 165 170 172 174 194 209 213 208 195 214 212 205 180 178 188 192 184 176 174 173 171 180 178 182 187 202 216 219 232 233 234 239 252 247 256 253 252 247 238 239 238 231 219 213 218 225 229 229 234 240 245 261 214 134 147 137 133 95 57 216 265 356 334 298 290 287 292 287
321 322 331 326 320 312 291 296 280 236 206 218 240 232 188 166 183 185 191 177 177 183 186 195 221 253 250 238 204 200 194 197 194 190 182 176 176 182 182 191 197 195 208 205 212 218 218 224 240 234 229 232 235 236 232 230 225 220 221 222 231 227 217 210 216 223 225 227 233 217 140 133 168 143 154 195 217 120 77 2 320 303 286 247 255
300 293 306 310 314 312 309 278 245 253 229 206 217 149 78 170 180 181 178 190 193 192 185 190 201 208 219 212 181 186 202 205 171 177 179 176 181 183 186 189 190 198 200 199 199 209 211 224 229 239 245 220 219 222 229 228 223 220 203 203 215 225 236 227 215 215 217 219 211 168 188 173 139 129 171 172 138 267 120 132 271 278 278 272 267
294 308 315 296 298 307 317 317 312 286 274 243 204 165 168 264 211 185 167 171 194 208 219 228 224 217 227 209 196 200 196 189 169 178 178 181 183 188 189 189 189 194 192 178 195 208 222 232 240 243 232 230 233 242 254 256 234 223 249 212 196 213 227 243 255 271 214 148 179 199 159 133 135 150 131 107 258 290 259 190 202 267 262 271 277
275 285 290 314 327 312 310 307 313 318 305 286 256 197 194 189 202 247 234 224 208 205 212 213 202 190 203 181 151 170 159 171 179 175 177 181 189 190 189 184 183 178 182 168 180 201 215 225 238 245 249 254 250 250 241 234 230 225 230 240 232 211 204 211 216 225 239 175 179 195 167 146 145 146 155 159 124 290 276 234 216 259 277 295 322
224 245 249 275 275 297 307 308 307 296 306 309 295 269 231 206 190 202 213 40 278 224 204 200 196 185 182 191 153 166 173 166 167 178 183 187 190 180 169 162 160 155 140 163 188 196 216 231 243 247 248 252 252 252 252 236 231 236 241 240 239 219 202 216 193 205 212 214 159 161 161 152 155 149 140 147 171 188 216 247 183 230 303 113 285
257 253 254 245 251 265 270 276 285 291 294 293 307 309 286 254 236 175 167 194 212 264 271 247 203 165 165 164 158 172 170 169 165 170 182 190 185 157 141 126 131 162 176 189 187 206 212 225 226 234 243 247 248 238 232 230 227 225 235 239 245 226 223 170 162 183 194 204 199 212 162 158 153 152 164 183 190 148 127 228 214 184 230 233 227
245 253 257 262 258 248 240 246 246 272 279 277 289 298 312 310 288 235 182 187 202 206 210 220 222 200 187 176 171 162 163 168 172 173 164 159 156 147 124 124 148 205 256 230 212 211 217 216 228 233 243 244 237 232 233 233 220 224 227 223 222 223 222 173 190 189 207 196 180 183 163 168 164 168 160 172 161 156 162 174 221 218 203 219 223
245 256 254 240 246 255 255 246 225 215 233 243 249 272 272 270 274 268 243 187 193 204 209 209 199 211 203 185 174 168 163 166 166 160 156 155 154 145 160 183 179 196 200 202 211 221 225 232 236 239 241 246 241 236 236 235 223 233 240 223 218 219 226 190 188 209 209 179 173 179 150 120 126 160 165 167 180 170 155 144 153 170 170 188 208
250 253 252 257 261 276 269 263 243 226 216 202 199 247 271 281 287 286 267 248 209 192 204 200 193 150 137 185 152 128 122 129 134 139 154 162 167 170 187 184 197 196 201 204 204 213 217 228 230 236 240 241 246 244 236 225 214 223 230 227 218 211 213 216 209 215 206 181 178 175 183 148 160 158 163 166 174 173 152 138 117 113 141 149 146
252 254 262 255 252 246 256 275 291 286 245 227 219 236 247 254 269 273 273 252 246 248 229 222 179 162 175 180 145 145 115 104 100 85 96 129 184 206 201 204 205 210 205 208 200 203 214 221 221 222 227 225 231 234 238 237 221 225 238 230 214 207 198 210 223 222 241 225 162 173 154 157 164 184 165 151 178 177 157 136 138 140 137 168 181
290 268 246 243 240 245 249 257 259 269 279 287 239 210 247 265 265 267 265 272 256 236 240 251 218 181 174 131 137 130 127 144 168 177 174 187 193 200 207 211 214 216 219 220 215 207 210 212 217 221 222 217 219 220 217 219 218 227 244 251 217 195 187 200 215 230 214 203 174 154 147 170 182 196 177 159 152 163 149 143 146 155 166 176 184
293 294 272 236 238 235 238 238 248 257 262 257 263 257 258 261 266 264 264 261 263 261 248 235 236 219 158 144 141 154 165 174 186 184 184 183 192 198 205 209 211 215 217 221 225 233 237 237 212 214 223 229 230 218 204 204 204 213 226 233 214 192 184 180 196 209 220 194 171 172 157 177 188 194 158 147 153 166 147 154 156 164 168 178 168
310 276 273 252 224 241 226 232 240 244 243 242 240 240 246 253 251 241 249 245 253 265 264 261 248 241 166 172 170 171 172 182 186 191 189 192 193 197 204 209 212 216 218 220 223 229 235 238 239 241 241 230 223 213 201 194 196 203 222 245 236 197 186 193 196 205 217 180 170 171 180 177 181 151 141 161 148 153 144 160 159 165 168 176 151
162 289 290 298 249 222 238 236 238 233 236 244 248 240 228 231 249 254 250 247 251 253 257 256 253 256 167 172 173 179 181 189 183 188 191 190 196 200 204 208 213 215 218 220 222 224 227 233 232 225 236 241 222 204 195 198 195 205 214 222 225 218 202 199 191 190 203 180 175 174 178 180 171 156 155 149 147 151 149 160 176 153 167 166 155
197 247 261 265 282 285 279 268 250 249 250 246 243 245 247 242 237 247 261 257 254 257 260 248 246 256 175 178 178 183 189 192 186 189 190 191 197 198 203 208 212 215 218 223 223 223 224 224 224 230 234 235 219 203 193 193 191 205 214 214 225 228 214 201 194 191 189 172 176 180 184 182 169 150 155 154 155 159 170 166 173 163 161 165 162
227 242 249 272 273 275 272 279 283 285 279 271 271 269 249 245 240 244 248 254 251 250 256 250 250 243 150 191 181 181 200 193 187 192 193 191 195 199 206 210 212 214 215 217 219 223 225 213 210 213 224 234 229 210 195 189 186 192 196 203 211 225 224 203 190 185 176 181 186 180 178 172 157 153 155 162 155 163 177 166 170 177 169 171 169
280 279 285 276 271 271 268 256 260 273 282 285 274 270 265 262 258 257 249 248 247 251 256 262 264 265 180 164 178 196 199 205 192 192 194 194 195 201 207 209 207 209 211 211 215 220 222 210 199 202 212 211 213 210 197 188 178 182 184 197 212 213 213 206 190 188 182 184 180 169 172 166 162 161 161 164 166 163 177 171 170 175 173 170 175
261 266 267 272 277 272 273 268 249 254 263 263 265 268 277 278 278 272 271 259 254 269 269 260 252 264 247 183 194 196 201 203 201 198 196 195 198 203 209 213 209 202 206 214 217 216 210 197 194 198 210 218 221 211 191 186 181 184 191 204 222 225 204 199 196 189 199 186 175 168 166 165 165 165 164 165 170 167 172 171 170 168 172 168 172
251 258 258 268 265 272 269 265 246 239 246 250 257 260 260 261 270 273 271 259 248 254 263 264 259 256 262 209 195 200 204 205 212 212 212 204 202 204 215 215 203 199 197 199 197 185 192 198 198 199 201 203 210 215 207 191 185 185 185 196 221 236 231 213 209 199 201 183 169 160 163 166 166 168 160 163 165 171 169 172 173 177 176 174 169
263 265 267 260 262 265 269 263 255 229 229 243 247 251 254 258 258 260 272 282 268 252 250 256 259 253 253 226 196 209 202 207 208 215 215 210 210 211 214 222 221 214 202 196 195 208 217 210 207 202 196 198 202 201 202 200 191 182 185 192 204 216 227 227 234 218 198 193 166 161 162 162 166 168 166 166 173 170 171 178 180 180 181 181 178
281 271 267 262 269 268 268 259 262 260 255 242 235 239 246 246 243 245 250 258 258 256 260 262 266 267 271 253 210 210 210 214 215 216 218 216 209 207 207 212 223 229 213 200 198 205 220 208 191 193 200 204 204 203 203 198 194 189 190 191 196 201 211 223 230 248 221 192 159 157 162 165 168 175 173 168 174 174 178 176 178 181 184 184 182
289 284 278 271 265 262 262 259 258 257 260 263 256 245 231 242 247 240 236 265 282 272 262 257 251 258 262 264 232 204 215 217 219 221 219 217 214 211 207 207 213 219 217 209 204 207 203 192 191 193 195 198 201 204 209 205 194 193 192 199 198 198 202 211 221 233 250 221 175 163 162 166 171 173 177 179 175 174 179 180 180 180 180 183 188
289 285 281 275 271 269 270 269 256 250 252 253 255 256 257 253 254 248 245 250 257 262 265 266 267 266 263 261 262 243 221 223 237 237 225 218 213 207 206 214 214 211 212 209 208 206 201 196 196 195 198 199 202 202 206 206 203 200 197 195 199 198 199 204 209 229 219 228 234 179 169 165 165 176 179 184 184 181 179 182 178 180 183 187 190